Regional Weather Roundup
Issued by NWS

Home | Current Version | Previous Version | Text Only | Print | Product List | Glossary Off
Versions: 1 2 3 4 5 6 7 8 9 10 11 12 13 14 15 16 17 18 19 20 21 22 23 24 25 26 27 28 29 30 31 32 33 34 35 36 37 38 39 40 41 42 43 44 45 46 47 48 49 50

000
ASUS43 KOAX 201202
RWRNE

WEATHER ROUNDUP FOR NEBRASKA
NATIONAL WEATHER SERVICE OMAHA NE
700 AM CDT SAT SEP 20 2014

NOTES: SATELLITE DATA IS BEING USED TO AUGMENT CLOUD COVER ABOVE
       12000 FEET.
       "FAIR" INDICATES FEW OR NO CLOUDS BELOW 12,000 FEET WITH NO
       SIGNIFICANT WEATHER AND/OR OBSTRUCTIONS TO VISIBILITY.

  * THESE STATIONS DO NOT REPORT WEATHER SUCH AS RAIN...SNOW OR FOG.

NEZ001>004-019>022-054>056-201300-
NEBRASKA PANHANDLE

CITY           SKY/WX    TMP DP  RH WIND       PRES   REMARKS
SCOTTSBLUFF    CLEAR     53  48  83 NW7       30.12R
6HR MIN TEMP:  53; 6HR MAX TEMP:  65;

ALLIANCE       CLEAR     48  46  93 W3        30.09R
6HR MIN TEMP:  48; 6HR MAX TEMP:  60;

CHADRON        CLEAR     47  45  93 SW7       30.07R
6HR MIN TEMP:  47; 6HR MAX TEMP:  57;

KIMBALL        CLEAR     52  48  86 NW8       30.15R
SIDNEY         CLEAR     56  49  77 NW7       30.12R
6HR MIN TEMP:  56; 6HR MAX TEMP:  63;

$$

NEZ057>060-069>072-079>082-201300-
SOUTHWEST NEBRASKA

CITY           SKY/WX    TMP DP  RH WIND       PRES   REMARKS
NORTH PLATTE   CLEAR     61  54  77 CALM      30.00R
6HR MIN TEMP:  61; 6HR MAX TEMP:  73; 6HR PCP:  0.01;

IMPERIAL       CLEAR     62  54  74 N14       30.01R
6HR MIN TEMP:  61; 6HR MAX TEMP:  73;

LEXINGTON      CLEAR     63  60  91 N8        29.95R
MCCOOK         CLEAR     64  61  90 W3        29.93R
6HR MIN TEMP:  64; 6HR MAX TEMP:  73;

OGALLALA       CLEAR     64  52  65 NE14G22   30.03R
$$

NEZ005>010-023>029-035>040-094-201300-
NORTH CENTRAL NEBRASKA

CITY           SKY/WX    TMP DP  RH WIND       PRES   REMARKS
VALENTINE      PTCLDY    54  51  90 W7        30.00R
6HR MIN TEMP:  53; 6HR MAX TEMP:  61;

AINSWORTH      PTCLDY    55  50  84 W3        29.98R
BROKEN BOW     CLEAR     62  54  74 N9        29.96R
6HR MIN TEMP:  61; 6HR MAX TEMP:  70;

O`NEILL        CLOUDY    59  57  93 W3        29.95R
ORD            PTCLDY    61  55  81 N5        29.93R
6HR MIN TEMP:  60; 6HR MAX TEMP:  74; 6HR PCP:  0.07;

THEDFORD       CLEAR     58  52  79 CALM      30.01S
$$

NEZ041-046>049-061>064-073>077-083>087-201300-
SOUTH CENTRAL NEBRASKA

CITY           SKY/WX    TMP DP  RH WIND       PRES   REMARKS
GRAND ISLAND   CLEAR     66  61  84 CALM      29.91R
6HR MIN TEMP:  65; 6HR MAX TEMP:  77;

AURORA         MOCLDY    67  62  85 SW5       29.90R
HASTINGS       PTCLDY    64  58  80 CALM      29.91R
6HR MIN TEMP:  63; 6HR MAX TEMP:  75;

HEBRON         PTCLDY    67  61  80 CALM      29.90R
HOLDREGE       CLEAR     62  59  90 CALM      29.93R
KEARNEY *      CLEAR     63  59  88 CALM      29.93R
YORK           CLOUDY    66  63  88 S9        29.89S
$$

NEZ011>018-030>034-042>045-201300-
NORTHEAST NEBRASKA

CITY           SKY/WX    TMP DP  RH WIND       PRES   REMARKS
NORFOLK        MOCLDY    67  58  72 N9        29.90R
6HR MIN TEMP:  64; 6HR MAX TEMP:  73; 6HR PCP: TRACE;

ALBION         PTCLDY    65  56  74 N7        29.92R
BLAIR          CLOUDY    69  65  86 S6        29.89R
COLUMBUS *     PTCLDY    66  63  88 NW6       29.90R
FREMONT        CLOUDY    69  64  85 E6        29.88R
TEKAMAH        CLOUDY    67  65  93 SE6       29.86R
6HR MIN TEMP:  67; 6HR MAX TEMP:  76; 6HR PCP:  0.06;

WAYNE          MOCLDY    62  59  90 CALM      29.90R
$$

NEZ050>053-065>068-078-088>093-201300-
SOUTHEAST NEBRASKA

CITY           SKY/WX    TMP DP  RH WIND       PRES   REMARKS
LINCOLN        CLOUDY    69  66  90 S12       29.89S
6HR MIN TEMP:  69; 6HR MAX TEMP:  75; 6HR PCP:  0.09;

OMAHA EPPLEY   CLOUDY    70  66  87 S6        29.89R
6HR MIN TEMP:  70; 6HR MAX TEMP:  74; 6HR PCP:  0.27;

BEATRICE       MOCLDY    67  64  89 E8        29.95R
FALLS CITY     CLOUDY    70  67  90 N7        29.97R
6HR MIN TEMP:  69; 6HR MAX TEMP:  71;

NEBRASKA CITY    N/A     68  67  97 S7        29.94F THUNDER
PLATTSMOUTH    TSTM      68  64  88 S9G18     29.91R
$$

NEZ044-045-051>053-067-201300-
OMAHA AREA

CITY           SKY/WX    TMP DP  RH WIND       PRES   REMARKS
OMAHA EPPLEY   CLOUDY    70  66  87 S6        29.89R
6HR MIN TEMP:  70; 6HR MAX TEMP:  74; 6HR PCP:  0.27;

BLAIR          CLOUDY    69  65  86 S6        29.89R
FREMONT        CLOUDY    69  64  85 E6        29.88R
MILLARD        CLOUDY    71  67  88 CALM      29.89R
PLATTSMOUTH    TSTM      68  64  88 S9G18     29.91R
WAHOO          PTSUNNY   69  64  83 CALM      29.88R
$$


USA.gov is the U.S. government's official web portal to all federal, state and local government web resources and services.